CFS8675 KPDX-KLMT

Flight info

Callsign CFS8675
Flight time 1h 11m
Altitude 11000
Route BTG V23 OED V122 LMT
Aircraft C208/L-SDF/C

Departure

Time 2026-05-05 05:06
Airport Portland International Airport (KPDX)

Arrival

Time 2026-05-05 06:18
Airport Crater Lake-Klamath Regional Airport (KLMT)
Time Latitude Longitude Altitude Speed Heading
2026-05-05 04:36 45.58051 -122.61134 26 ft 0 kts 130°
2026-05-05 04:55 45.58061 -122.61114 26 ft 6 kts 20°
2026-05-05 04:55 45.58120 -122.61127 26 ft 12 kts 328°
2026-05-05 04:55 45.58180 -122.61206 26 ft 9 kts 314°
2026-05-05 04:55 45.58228 -122.61275 28 ft 9 kts 315°
2026-05-05 04:56 45.58248 -122.61303 26 ft 2 kts 315°
2026-05-05 04:56 45.58249 -122.61304 26 ft 0 kts 315°
2026-05-05 04:56 45.58256 -122.61314 29 ft 4 kts 315°
2026-05-05 04:57 45.58298 -122.61354 26 ft 11 kts 359°
2026-05-05 04:57 45.58371 -122.61279 26 ft 16 kts 45°
2026-05-05 04:57 45.58450 -122.61166 26 ft 14 kts 45°
2026-05-05 04:57 45.58519 -122.61068 26 ft 15 kts 45°
2026-05-05 04:58 45.58585 -122.60973 28 ft 11 kts 45°
2026-05-05 04:58 45.58635 -122.60902 26 ft 13 kts 45°
2026-05-05 04:58 45.58711 -122.60796 26 ft 17 kts 45°
2026-05-05 04:58 45.58786 -122.60688 28 ft 12 kts 47°
2026-05-05 04:59 45.58775 -122.60567 26 ft 14 kts 119°
2026-05-05 04:59 45.58721 -122.60429 26 ft 17 kts 118°
2026-05-05 04:59 45.58665 -122.60285 27 ft 15 kts 118°
2026-05-05 04:59 45.58621 -122.60171 27 ft 12 kts 119°
2026-05-05 05:00 45.58580 -122.60067 27 ft 14 kts 118°
2026-05-05 05:00 45.58533 -122.59949 27 ft 13 kts 118°
2026-05-05 05:00 45.58491 -122.59839 27 ft 14 kts 119°
2026-05-05 05:00 45.58433 -122.59691 27 ft 20 kts 119°
2026-05-05 05:01 45.58365 -122.59516 27 ft 19 kts 120°
2026-05-05 05:01 45.58300 -122.59349 41 ft 21 kts 119°
2026-05-05 05:01 45.58236 -122.59184 27 ft 19 kts 119°
2026-05-05 05:01 45.58175 -122.59026 28 ft 18 kts 118°
2026-05-05 05:02 45.58112 -122.58867 28 ft 17 kts 120°
2026-05-05 05:02 45.58066 -122.58747 28 ft 14 kts 119°
2026-05-05 05:02 45.58009 -122.58602 27 ft 15 kts 119°
2026-05-05 05:02 45.57976 -122.58496 27 ft 10 kts 83°
2026-05-05 05:03 45.57986 -122.58467 28 ft 0 kts 43°
2026-05-05 05:04 45.57998 -122.58455 28 ft 6 kts 30°
2026-05-05 05:04 45.58047 -122.58418 27 ft 8 kts 21°
2026-05-05 05:04 45.58072 -122.58437 27 ft 0 kts 299°
2026-05-05 05:05 45.58076 -122.58445 27 ft 4 kts 299°
2026-05-05 05:05 45.58119 -122.58556 28 ft 30 kts 299°
2026-05-05 05:05 45.58288 -122.58989 28 ft 68 kts 299°
2026-05-05 05:05 45.58550 -122.59677 120 ft 82 kts 298°
2026-05-05 05:06 45.58814 -122.60389 293 ft 82 kts 298°
2026-05-05 05:06 45.59093 -122.61104 494 ft 83 kts 297°
2026-05-05 05:06 45.59374 -122.61844 660 ft 86 kts 296°
2026-05-05 05:06 45.59641 -122.62611 827 ft 85 kts 294°
2026-05-05 05:07 45.59879 -122.63378 993 ft 87 kts 292°
2026-05-05 05:07 45.60098 -122.64196 1153 ft 89 kts 290°
2026-05-05 05:07 45.60332 -122.65035 1305 ft 93 kts 296°
2026-05-05 05:07 45.60609 -122.65895 1432 ft 98 kts 298°
2026-05-05 05:08 45.60920 -122.66790 1569 ft 103 kts 300°
2026-05-05 05:08 45.61271 -122.67724 1717 ft 110 kts 300°
2026-05-05 05:08 45.61631 -122.68719 1834 ft 115 kts 299°
2026-05-05 05:08 45.61974 -122.69771 1942 ft 120 kts 282°
2026-05-05 05:09 45.61719 -122.70889 2074 ft 123 kts 236°
2026-05-05 05:09 45.61168 -122.71804 2176 ft 126 kts 207°
2026-05-05 05:09 45.60320 -122.71903 2290 ft 123 kts 171°
2026-05-05 05:09 45.59471 -122.71731 2403 ft 124 kts 167°
2026-05-05 05:10 45.58621 -122.71536 2521 ft 124 kts 166°
2026-05-05 05:10 45.57770 -122.71309 2649 ft 125 kts 166°
2026-05-05 05:10 45.56919 -122.71052 2775 ft 125 kts 164°
2026-05-05 05:10 45.56062 -122.70802 2898 ft 125 kts 165°
2026-05-05 05:11 45.55233 -122.70540 3005 ft 123 kts 164°
2026-05-05 05:11 45.54402 -122.70289 3130 ft 121 kts 164°
2026-05-05 05:11 45.53576 -122.70046 3247 ft 121 kts 164°
2026-05-05 05:11 45.52751 -122.69804 3377 ft 121 kts 164°
2026-05-05 05:12 45.51924 -122.69560 3494 ft 122 kts 164°
2026-05-05 05:12 45.51084 -122.69324 3600 ft 124 kts 165°
2026-05-05 05:12 45.50218 -122.69157 3680 ft 127 kts 178°
2026-05-05 05:12 45.49330 -122.69288 3783 ft 130 kts 188°
2026-05-05 05:13 45.48443 -122.69565 3885 ft 131 kts 193°
2026-05-05 05:13 45.47580 -122.69889 3964 ft 130 kts 193°
2026-05-05 05:13 45.46708 -122.70232 4062 ft 130 kts 193°
2026-05-05 05:13 45.45836 -122.70574 4163 ft 130 kts 193°
2026-05-05 05:14 45.44958 -122.70919 4268 ft 131 kts 194°
2026-05-05 05:14 45.44080 -122.71269 4361 ft 131 kts 193°
2026-05-05 05:14 45.43207 -122.71615 4460 ft 130 kts 193°
2026-05-05 05:14 45.42341 -122.71962 4550 ft 129 kts 193°
2026-05-05 05:15 45.41480 -122.72301 4663 ft 128 kts 193°
2026-05-05 05:15 45.40628 -122.72638 4781 ft 125 kts 193°
2026-05-05 05:15 45.39814 -122.72959 4924 ft 121 kts 192°
2026-05-05 05:15 45.39018 -122.73272 5067 ft 117 kts 192°
2026-05-05 05:16 45.38243 -122.73576 5217 ft 114 kts 193°
2026-05-05 05:16 45.37486 -122.73872 5361 ft 111 kts 193°
2026-05-05 05:16 45.36749 -122.74162 5511 ft 109 kts 193°
2026-05-05 05:16 45.36030 -122.74442 5650 ft 105 kts 193°
2026-05-05 05:17 45.35335 -122.74713 5797 ft 103 kts 193°
2026-05-05 05:17 45.34635 -122.74985 5885 ft 106 kts 193°
2026-05-05 05:17 45.33910 -122.75273 5973 ft 110 kts 194°
2026-05-05 05:17 45.33162 -122.75575 6059 ft 114 kts 194°
2026-05-05 05:18 45.32399 -122.75878 6139 ft 117 kts 194°
2026-05-05 05:18 45.31609 -122.76192 6235 ft 118 kts 194°
2026-05-05 05:18 45.30809 -122.76507 6337 ft 120 kts 194°
2026-05-05 05:18 45.29994 -122.76825 6437 ft 122 kts 194°
2026-05-05 05:19 45.29167 -122.77151 6537 ft 125 kts 194°
2026-05-05 05:19 45.28319 -122.77483 6626 ft 127 kts 194°
2026-05-05 05:19 45.27464 -122.77822 6717 ft 128 kts 195°
2026-05-05 05:19 45.26613 -122.78208 6810 ft 129 kts 199°
2026-05-05 05:20 45.25764 -122.78618 6900 ft 129 kts 198°
2026-05-05 05:20 45.24906 -122.78984 6982 ft 134 kts 195°
2026-05-05 05:20 45.23988 -122.79350 7077 ft 140 kts 194°
2026-05-05 05:20 45.23034 -122.79728 7185 ft 145 kts 195°
2026-05-05 05:21 45.22065 -122.80114 7336 ft 145 kts 195°
2026-05-05 05:21 45.21106 -122.80491 7533 ft 141 kts 195°
2026-05-05 05:21 45.20169 -122.80860 7722 ft 138 kts 194°
2026-05-05 05:21 45.19252 -122.81220 7912 ft 135 kts 194°
2026-05-05 05:22 45.18354 -122.81564 8089 ft 132 kts 193°
2026-05-05 05:22 45.17474 -122.81896 8287 ft 129 kts 194°
2026-05-05 05:22 45.16628 -122.82220 8479 ft 127 kts 193°
2026-05-05 05:22 45.15783 -122.82546 8660 ft 125 kts 194°
2026-05-05 05:23 45.14946 -122.82869 8829 ft 124 kts 193°
2026-05-05 05:23 45.14117 -122.83188 8987 ft 124 kts 194°
2026-05-05 05:23 45.13286 -122.83512 9145 ft 124 kts 194°
2026-05-05 05:23 45.12460 -122.83863 9300 ft 123 kts 196°
2026-05-05 05:24 45.11641 -122.84216 9455 ft 123 kts 195°
2026-05-05 05:24 45.10826 -122.84562 9613 ft 122 kts 196°
2026-05-05 05:24 45.10022 -122.84902 9757 ft 123 kts 196°
2026-05-05 05:24 45.09193 -122.85246 9886 ft 125 kts 194°
2026-05-05 05:25 45.08352 -122.85589 10008 ft 127 kts 194°
2026-05-05 05:25 45.07498 -122.85933 10126 ft 129 kts 195°
2026-05-05 05:25 45.06632 -122.86278 10240 ft 130 kts 193°
2026-05-05 05:25 45.05748 -122.86571 10357 ft 131 kts 189°
2026-05-05 05:26 45.04851 -122.86845 10482 ft 133 kts 191°
2026-05-05 05:26 45.03948 -122.87154 10598 ft 134 kts 192°
2026-05-05 05:26 45.03039 -122.87489 10720 ft 136 kts 193°
2026-05-05 05:26 45.02134 -122.87837 10836 ft 137 kts 192°
2026-05-05 05:27 45.01209 -122.88196 10958 ft 139 kts 194°
2026-05-05 05:27 45.00261 -122.88571 11012 ft 146 kts 194°
2026-05-05 05:27 44.98203 -122.89416 11055 ft 161 kts 195°
2026-05-05 05:28 44.97106 -122.89870 11056 ft 167 kts 194°
2026-05-05 05:28 44.95977 -122.90333 11054 ft 171 kts 195°
2026-05-05 05:28 44.94839 -122.90797 11055 ft 174 kts 195°
2026-05-05 05:28 44.93667 -122.91271 11053 ft 176 kts 194°
2026-05-05 05:29 44.92484 -122.91743 11049 ft 177 kts 194°
2026-05-05 05:29 44.91308 -122.92205 11048 ft 174 kts 194°
2026-05-05 05:29 44.90149 -122.92652 11049 ft 172 kts 194°
2026-05-05 05:29 44.88995 -122.93098 11053 ft 172 kts 194°
2026-05-05 05:30 44.87838 -122.93546 11058 ft 173 kts 194°
2026-05-05 05:30 44.86673 -122.93998 11058 ft 174 kts 194°
2026-05-05 05:30 44.85516 -122.94415 11057 ft 174 kts 190°
2026-05-05 05:30 44.84333 -122.94778 11054 ft 174 kts 191°
2026-05-05 05:31 44.83154 -122.95162 11056 ft 174 kts 192°
2026-05-05 05:31 44.81976 -122.95577 11055 ft 175 kts 193°
2026-05-05 05:31 44.80802 -122.96013 11055 ft 174 kts 193°
2026-05-05 05:31 44.79630 -122.96462 11055 ft 175 kts 193°
2026-05-05 05:32 44.78455 -122.96916 11057 ft 175 kts 194°
2026-05-05 05:32 44.77276 -122.97372 11054 ft 176 kts 194°
2026-05-05 05:32 44.76096 -122.97829 11049 ft 176 kts 194°
2026-05-05 05:32 44.74935 -122.98279 11048 ft 175 kts 193°
2026-05-05 05:33 44.73760 -122.98732 11046 ft 175 kts 193°
2026-05-05 05:33 44.72583 -122.99185 11052 ft 175 kts 193°
2026-05-05 05:33 44.71405 -122.99639 11049 ft 176 kts 194°
2026-05-05 05:33 44.70228 -123.00093 11047 ft 176 kts 193°
2026-05-05 05:34 44.69048 -123.00548 11047 ft 176 kts 193°
2026-05-05 05:34 44.67866 -123.01001 11049 ft 176 kts 193°
2026-05-05 05:34 44.66703 -123.01448 11048 ft 176 kts 194°
2026-05-05 05:34 44.65523 -123.01902 11063 ft 176 kts 193°
2026-05-05 05:35 44.64342 -123.02353 11064 ft 176 kts 193°
2026-05-05 05:35 44.63160 -123.02806 11069 ft 176 kts 194°
2026-05-05 05:35 44.61979 -123.03260 11069 ft 176 kts 194°
2026-05-05 05:35 44.60800 -123.03714 11070 ft 176 kts 193°
2026-05-05 05:36 44.59620 -123.04166 11074 ft 176 kts 193°
2026-05-05 05:36 44.58437 -123.04618 11075 ft 176 kts 194°
2026-05-05 05:36 44.57272 -123.05064 11078 ft 176 kts 194°
2026-05-05 05:36 44.56091 -123.05517 11080 ft 176 kts 194°
2026-05-05 05:37 44.54910 -123.05968 11081 ft 176 kts 194°
2026-05-05 05:37 44.53730 -123.06426 11080 ft 176 kts 195°
2026-05-05 05:37 44.52554 -123.06902 11083 ft 176 kts 195°
2026-05-05 05:37 44.51376 -123.07371 11084 ft 176 kts 195°
2026-05-05 05:38 44.50192 -123.07834 11087 ft 177 kts 195°
2026-05-05 05:38 44.49008 -123.08291 11084 ft 177 kts 195°
2026-05-05 05:38 44.47822 -123.08746 11083 ft 177 kts 195°
2026-05-05 05:38 44.46650 -123.09194 11085 ft 177 kts 194°
2026-05-05 05:39 44.45463 -123.09645 11086 ft 177 kts 194°
2026-05-05 05:39 44.44275 -123.10097 11086 ft 177 kts 194°
2026-05-05 05:39 44.43085 -123.10550 11086 ft 177 kts 194°
2026-05-05 05:39 44.41896 -123.11003 11086 ft 177 kts 194°
2026-05-05 05:40 44.40705 -123.11457 11086 ft 177 kts 194°
2026-05-05 05:40 44.39917 -123.11757 11085 ft 177 kts 194°
2026-05-05 05:40 44.38323 -123.12364 11084 ft 178 kts 194°
2026-05-05 05:40 44.37145 -123.12813 11085 ft 178 kts 194°
2026-05-05 05:41 44.35951 -123.13267 11085 ft 178 kts 194°
2026-05-05 05:41 44.34757 -123.13721 11084 ft 178 kts 194°
2026-05-05 05:41 44.33965 -123.14022 11083 ft 178 kts 194°
2026-05-05 05:41 44.32766 -123.14478 11081 ft 178 kts 194°
2026-05-05 05:42 44.31570 -123.14933 11080 ft 178 kts 194°
2026-05-05 05:42 44.30376 -123.15385 11081 ft 178 kts 195°
2026-05-05 05:42 44.29180 -123.15839 11093 ft 178 kts 195°
2026-05-05 05:42 44.27984 -123.16293 11095 ft 178 kts 195°
2026-05-05 05:43 44.26786 -123.16747 11095 ft 178 kts 195°
2026-05-05 05:43 44.25587 -123.17200 11096 ft 178 kts 195°
2026-05-05 05:43 44.24388 -123.17654 11097 ft 178 kts 195°
2026-05-05 05:43 44.23207 -123.18100 11098 ft 178 kts 195°
2026-05-05 05:44 44.22010 -123.18553 11104 ft 178 kts 195°
2026-05-05 05:44 44.20813 -123.19006 11103 ft 178 kts 194°
2026-05-05 05:44 44.19615 -123.19458 11104 ft 179 kts 194°
2026-05-05 05:44 44.18416 -123.19912 11105 ft 179 kts 194°
2026-05-05 05:45 44.17213 -123.20367 11103 ft 179 kts 194°
2026-05-05 05:45 44.15040 -123.21186 11102 ft 180 kts 194°
2026-05-05 05:45 44.10695 -123.22292 11099 ft 177 kts 168°
2026-05-05 05:45 44.05854 -123.21068 11102 ft 177 kts 171°
2026-05-05 05:46 44.00948 -123.20146 11099 ft 178 kts 170°
2026-05-05 05:46 43.96007 -123.19191 11096 ft 180 kts 169°
2026-05-05 05:46 43.91024 -123.18232 11100 ft 181 kts 170°
2026-05-05 05:46 43.86026 -123.17273 11085 ft 181 kts 170°
2026-05-05 05:47 43.81034 -123.16315 11092 ft 181 kts 170°
2026-05-05 05:47 43.76044 -123.15354 11088 ft 181 kts 169°
2026-05-05 05:47 43.71104 -123.14411 11074 ft 181 kts 170°
2026-05-05 05:47 43.66110 -123.13454 11080 ft 182 kts 170°
2026-05-05 05:48 43.61103 -123.12498 11084 ft 181 kts 170°
2026-05-05 05:48 43.56095 -123.11544 11085 ft 182 kts 170°
2026-05-05 05:48 43.51069 -123.10590 11078 ft 182 kts 170°
2026-05-05 05:48 43.46072 -123.09639 11088 ft 181 kts 170°
2026-05-05 05:49 43.41069 -123.08693 11085 ft 182 kts 169°
2026-05-05 05:49 43.36023 -123.07740 11091 ft 183 kts 170°
2026-05-05 05:49 43.31040 -123.06796 11082 ft 179 kts 170°
2026-05-05 05:49 43.26169 -123.05875 11094 ft 180 kts 170°
2026-05-05 05:50 43.21189 -123.04939 11079 ft 181 kts 169°
2026-05-05 05:50 43.16214 -123.04005 11080 ft 179 kts 171°
2026-05-05 05:50 43.11276 -123.03080 11077 ft 179 kts 171°
2026-05-05 05:50 43.06379 -123.02159 11057 ft 177 kts 170°
2026-05-05 05:51 43.01513 -123.01252 11051 ft 177 kts 171°
2026-05-05 05:51 42.96622 -123.00345 11047 ft 176 kts 170°
2026-05-05 05:51 42.91842 -122.99447 11031 ft 176 kts 170°
2026-05-05 05:51 42.86986 -122.98544 11026 ft 176 kts 170°
2026-05-05 05:52 42.82108 -122.97635 11008 ft 178 kts 168°
2026-05-05 05:52 42.77219 -122.96720 11016 ft 178 kts 170°
2026-05-05 05:52 42.72339 -122.95829 11012 ft 177 kts 170°
2026-05-05 05:52 42.67471 -122.94924 10999 ft 176 kts 169°
2026-05-05 05:53 42.62646 -122.94031 11006 ft 175 kts 169°
2026-05-05 05:53 42.57816 -122.93135 11011 ft 176 kts 169°
2026-05-05 05:53 42.53008 -122.92246 11010 ft 177 kts 169°
2026-05-05 05:53 42.48166 -122.91142 11015 ft 175 kts 152°
2026-05-05 05:54 42.46176 -122.85735 11014 ft 167 kts 112°
2026-05-05 05:54 42.43831 -122.80292 10976 ft 167 kts 115°
2026-05-05 05:54 42.41672 -122.74733 10971 ft 166 kts 112°
2026-05-05 05:54 42.39571 -122.69203 10974 ft 165 kts 112°
2026-05-05 05:55 42.37462 -122.63669 10976 ft 166 kts 112°
2026-05-05 05:55 42.35355 -122.58149 10971 ft 165 kts 112°
2026-05-05 05:55 42.33294 -122.52747 10969 ft 164 kts 112°
2026-05-05 05:55 42.31192 -122.47259 10982 ft 165 kts 111°
2026-05-05 05:56 42.29104 -122.41829 10959 ft 162 kts 111°
2026-05-05 05:56 42.27088 -122.36526 10965 ft 157 kts 110°
2026-05-05 05:56 42.26440 -122.34821 10962 ft 159 kts 111°
2026-05-05 05:56 42.25931 -122.33495 10962 ft 160 kts 112°
2026-05-05 05:57 42.25414 -122.32164 10964 ft 160 kts 109°
2026-05-05 05:57 42.24898 -122.30840 10975 ft 160 kts 109°
2026-05-05 05:57 42.24396 -122.29533 10950 ft 158 kts 109°
2026-05-05 05:57 42.23953 -122.28196 10945 ft 154 kts 101°
2026-05-05 05:58 42.23748 -122.26807 10956 ft 149 kts 92°
2026-05-05 05:58 42.23542 -122.25436 10965 ft 149 kts 95°
2026-05-05 05:58 42.23319 -122.24065 10967 ft 150 kts 96°
2026-05-05 05:58 42.23099 -122.22689 10956 ft 149 kts 95°
2026-05-05 05:59 42.22884 -122.21314 10971 ft 150 kts 96°
2026-05-05 05:59 42.22668 -122.19926 10972 ft 152 kts 96°
2026-05-05 05:59 42.22452 -122.18548 10980 ft 153 kts 96°
2026-05-05 05:59 42.22234 -122.17133 10973 ft 155 kts 96°
2026-05-05 06:00 42.22011 -122.15703 10960 ft 156 kts 96°
2026-05-05 06:00 42.21790 -122.14264 10954 ft 157 kts 97°
2026-05-05 06:00 42.21567 -122.12816 10946 ft 158 kts 97°
2026-05-05 06:00 42.21341 -122.11370 10947 ft 157 kts 96°
2026-05-05 06:01 42.21118 -122.09925 10952 ft 158 kts 97°
2026-05-05 06:01 42.20895 -122.08494 10950 ft 158 kts 97°
2026-05-05 06:01 42.20663 -122.07042 10945 ft 159 kts 100°
2026-05-05 06:01 42.20111 -122.05733 10944 ft 168 kts 130°
2026-05-05 06:02 42.19036 -122.05039 10945 ft 178 kts 160°
2026-05-05 06:02 42.17851 -122.04589 10940 ft 175 kts 154°
2026-05-05 06:02 42.16707 -122.04042 10940 ft 174 kts 153°
2026-05-05 06:02 42.15568 -122.03497 10945 ft 174 kts 154°
2026-05-05 06:03 42.14425 -122.02964 10945 ft 174 kts 154°
2026-05-05 06:03 42.13294 -122.02448 10945 ft 174 kts 155°
2026-05-05 06:03 42.12149 -122.01930 10947 ft 174 kts 155°
2026-05-05 06:03 42.11002 -122.01415 10951 ft 174 kts 155°
2026-05-05 06:04 42.09858 -122.00903 10924 ft 172 kts 155°
2026-05-05 06:04 42.08732 -122.00395 10948 ft 170 kts 155°
2026-05-05 06:04 42.07608 -121.99894 10957 ft 170 kts 155°
2026-05-05 06:04 42.06483 -121.99388 10954 ft 170 kts 155°
2026-05-05 06:05 42.05357 -121.98884 10960 ft 170 kts 155°
2026-05-05 06:05 42.04230 -121.98381 10959 ft 171 kts 154°
2026-05-05 06:05 42.03115 -121.97881 10959 ft 172 kts 155°
2026-05-05 06:05 42.01980 -121.97377 10952 ft 172 kts 155°
2026-05-05 06:06 42.00843 -121.96869 10952 ft 172 kts 155°
2026-05-05 06:06 41.99710 -121.96365 10940 ft 171 kts 155°
2026-05-05 06:06 41.98584 -121.95859 10954 ft 171 kts 155°
2026-05-05 06:06 41.97452 -121.95343 10954 ft 171 kts 152°
2026-05-05 06:07 41.96470 -121.94521 10946 ft 162 kts 125°
2026-05-05 06:07 41.96148 -121.93197 10951 ft 148 kts 82°
2026-05-05 06:07 41.96253 -121.91826 10858 ft 153 kts 78°
2026-05-05 06:07 41.96430 -121.90396 10676 ft 157 kts 76°
2026-05-05 06:08 41.96629 -121.88953 10478 ft 158 kts 79°
2026-05-05 06:08 41.96750 -121.87468 10323 ft 161 kts 81°
2026-05-05 06:08 41.96836 -121.85960 10136 ft 162 kts 82°
2026-05-05 06:08 41.96908 -121.84446 9943 ft 163 kts 82°
2026-05-05 06:09 41.96974 -121.82927 9758 ft 163 kts 82°
2026-05-05 06:09 41.97041 -121.81410 9545 ft 162 kts 82°
2026-05-05 06:09 41.97100 -121.79918 9340 ft 161 kts 82°
2026-05-05 06:09 41.97152 -121.78454 9095 ft 154 kts 82°
2026-05-05 06:10 41.97189 -121.77044 8834 ft 149 kts 83°
2026-05-05 06:10 41.97223 -121.75665 8580 ft 147 kts 83°
2026-05-05 06:10 41.97249 -121.74295 8330 ft 146 kts 82°
2026-05-05 06:10 41.97271 -121.72909 7988 ft 151 kts 83°
2026-05-05 06:11 41.97293 -121.71483 7624 ft 154 kts 82°
2026-05-05 06:11 41.97309 -121.70030 7280 ft 156 kts 83°
2026-05-05 06:11 41.97358 -121.68609 7032 ft 147 kts 69°
2026-05-05 06:11 41.97897 -121.67589 6892 ft 131 kts 39°
2026-05-05 06:12 41.98551 -121.66769 6753 ft 127 kts 37°
2026-05-05 06:12 41.99206 -121.66004 6641 ft 123 kts 35°
2026-05-05 06:12 41.99932 -121.65491 6521 ft 118 kts 359°
2026-05-05 06:12 42.00738 -121.65728 6409 ft 120 kts 348°
2026-05-05 06:13 42.01559 -121.66012 6304 ft 123 kts 346°
2026-05-05 06:13 42.02377 -121.66341 6252 ft 122 kts 344°
2026-05-05 06:13 42.03176 -121.66693 6224 ft 120 kts 343°
2026-05-05 06:13 42.03950 -121.67048 6214 ft 119 kts 342°
2026-05-05 06:14 42.04730 -121.67438 6154 ft 123 kts 341°
2026-05-05 06:14 42.05551 -121.67892 5983 ft 130 kts 339°
2026-05-05 06:14 42.06350 -121.68348 5814 ft 118 kts 338°
2026-05-05 06:14 42.07081 -121.68760 5656 ft 111 kts 337°
2026-05-05 06:15 42.07782 -121.69165 5522 ft 110 kts 338°
2026-05-05 06:15 42.08483 -121.69568 5369 ft 109 kts 339°
2026-05-05 06:15 42.09175 -121.69914 5248 ft 103 kts 338°
2026-05-05 06:15 42.09824 -121.70225 5131 ft 97 kts 336°
2026-05-05 06:16 42.10451 -121.70525 5030 ft 94 kts 335°
2026-05-05 06:16 42.11050 -121.70815 5007 ft 87 kts 333°
2026-05-05 06:16 42.11604 -121.71143 4956 ft 88 kts 330°
2026-05-05 06:16 42.12182 -121.71482 4848 ft 92 kts 332°
2026-05-05 06:17 42.12790 -121.71796 4749 ft 94 kts 334°
2026-05-05 06:17 42.13388 -121.72135 4542 ft 93 kts 334°
2026-05-05 06:17 42.13983 -121.72461 4316 ft 92 kts 335°
2026-05-05 06:17 42.14553 -121.72771 4192 ft 85 kts 334°
2026-05-05 06:18 42.15057 -121.73039 4178 ft 66 kts 338°
2026-05-05 06:18 42.15389 -121.73218 4179 ft 47 kts 338°
2026-05-05 06:18 42.15619 -121.73342 4179 ft 24 kts 338°
2026-05-05 06:18 42.15757 -121.73427 4179 ft 16 kts 309°
2026-05-05 06:19 42.15772 -121.73561 4178 ft 13 kts 271°
2026-05-05 06:19 42.15774 -121.73658 4179 ft 0 kts 271°
2026-05-05 06:19 42.15774 -121.73669 4179 ft 4 kts 270°
2026-05-05 06:19 42.15788 -121.73740 4179 ft 12 kts 319°
2026-05-05 06:20 42.15877 -121.73794 4177 ft 15 kts 334°
2026-05-05 06:20 42.15981 -121.73850 4178 ft 18 kts 338°
2026-05-05 06:20 42.16104 -121.73916 4179 ft 20 kts 337°
2026-05-05 06:20 42.16241 -121.73992 4180 ft 22 kts 338°
2026-05-05 06:21 42.16350 -121.74077 4180 ft 14 kts 297°
2026-05-05 06:21 42.16372 -121.74202 4179 ft 10 kts 285°
2026-05-05 06:21 42.16437 -121.74233 4180 ft 11 kts
2026-05-05 06:21 42.16536 -121.74233 4181 ft 17 kts 360°
2026-05-05 06:22 42.16630 -121.74236 4181 ft 13 kts 355°
2026-05-05 06:22 42.16670 -121.74300 4181 ft 7 kts 267°
2026-05-05 06:22 42.16672 -121.74336 4181 ft 4 kts 303°
2026-05-05 06:22 42.16692 -121.74324 4179 ft 1 kts 91°
2026-05-05 06:23 42.16692 -121.74323 4179 ft 0 kts 89°